Flinders Reef Observation History
Time Wind Speed Temp Pressure Rel. Hum Rain
30/10:30am ESE 20-24 kts 27.6°c 1012.5 hPa n/a n/a
30/10:00am SE 22-25 kts 27.6°c 1012.4 hPa n/a n/a
30/09:30am ESE 21-25 kts 27.7°c 1012.2 hPa n/a n/a
30/09:00am ESE 22-25 kts 27.6°c 1012.0 hPa n/a n/a
30/08:30am ESE 24-27 kts 27.6°c 1011.8 hPa n/a n/a
30/08:00am ESE 24-28 kts 27.8°c 1011.6 hPa n/a n/a
30/07:30am ESE 22-25 kts 27.3°c 1011.3 hPa n/a n/a
30/07:00am SE 24-28 kts 27.6°c 1010.9 hPa n/a n/a
30/06:30am ESE 22-27 kts 27.3°c 1010.5 hPa n/a n/a
30/06:00am SE 21-24 kts 27.3°c 1010.3 hPa n/a n/a
30/05:30am SE 22-25 kts 27.2°c 1010.1 hPa n/a n/a
30/05:00am SE 21-25 kts 27.1°c 1010.0 hPa n/a n/a
30/04:30am SE 25-34 kts 25.8°c 1009.9 hPa n/a n/a
30/04:27am SE 22-33 kts 27.1°c 1009.9 hPa n/a n/a
30/04:00am SE 23-26 kts 27.5°c 1009.8 hPa n/a n/a
30/03:30am ESE 23-28 kts 27.4°c 1009.9 hPa n/a n/a
30/03:00am ESE 28-34 kts 26.5°c 1009.7 hPa n/a n/a
30/02:30am SE 23-30 kts 27.1°c 1010.1 hPa n/a n/a
30/02:00am SE 22-25 kts 27.4°c 1010.2 hPa n/a n/a
30/01:30am SE 23-27 kts 27.4°c 1010.4 hPa n/a n/a
30/01:00am ESE 21-25 kts 27.4°c 1010.8 hPa n/a n/a
30/12:30am ESE 20-24 kts 27.4°c 1011.2 hPa n/a n/a
30/12:00am ESE 17-27 kts 27.2°c 1011.5 hPa n/a n/a
Time Wind Speed Temp Pressure Rel. Hum Rain
29/11:30pm SE 20-23 kts 26.7°c 1011.9 hPa n/a n/a
29/11:00pm ESE 23-26 kts 26.1°c 1012.0 hPa n/a n/a
29/10:30pm ESE 23-27 kts 27.3°c 1012.0 hPa n/a n/a
29/10:00pm ESE 23-26 kts 27.3°c 1012.1 hPa n/a n/a
29/09:30pm ESE 20-26 kts 27.3°c 1011.9 hPa n/a n/a
29/09:00pm ESE 24-27 kts 27.4°c 1012.0 hPa n/a n/a
29/08:30pm SE 22-26 kts 27.4°c 1011.7 hPa n/a n/a
29/08:00pm SE 23-27 kts 27.6°c 1011.6 hPa n/a n/a
29/07:30pm SE 21-25 kts 27.5°c 1011.4 hPa n/a n/a
29/07:00pm SE 21-25 kts 27.6°c 1011.1 hPa n/a n/a
29/06:30pm SE 21-26 kts 27.6°c 1010.8 hPa n/a n/a
29/06:00pm SE 21-23 kts 27.7°c 1010.4 hPa n/a n/a
29/05:30pm SE 20-23 kts 27.9°c 1010.1 hPa n/a n/a
29/05:00pm SE 21-24 kts 27.8°c 1009.8 hPa n/a n/a
29/04:30pm SE 20-22 kts 27.9°c 1009.7 hPa n/a n/a
29/04:00pm SE 21-24 kts 27.8°c 1009.6 hPa n/a n/a
29/03:30pm SE 21-24 kts 27.8°c 1009.4 hPa n/a n/a
29/03:00pm SE 20-22 kts 27.8°c 1009.5 hPa n/a n/a
29/02:30pm SE 19-22 kts 27.7°c 1009.7 hPa n/a n/a
29/02:00pm SE 19-22 kts 27.8°c 1009.9 hPa n/a n/a
29/01:30pm SE 20-24 kts 27.8°c 1010.0 hPa n/a n/a
29/01:00pm SE 21-23 kts 27.7°c 1010.2 hPa n/a n/a
29/12:30pm ESE 20-23 kts 27.7°c 1010.5 hPa n/a n/a
29/12:00pm ESE 19-23 kts 27.7°c 1011.0 hPa n/a n/a
29/11:30am SE 21-24 kts 27.8°c 1011.4 hPa n/a n/a
29/11:00am ESE 23-26 kts 27.8°c 1011.7 hPa n/a n/a
29/10:30am ESE 21-24 kts 27.7°c 1011.9 hPa n/a n/a
29/10:00am ESE 21-25 kts 27.8°c 1011.9 hPa n/a n/a
29/09:30am ESE 22-25 kts 27.9°c 1011.8 hPa n/a n/a
29/09:00am ESE 20-24 kts 27.6°c 1011.8 hPa n/a n/a
29/08:30am ESE 21-25 kts 28.0°c 1011.5 hPa n/a n/a
29/08:00am SE 20-23 kts 27.5°c 1011.2 hPa n/a n/a
29/07:30am ESE 21-25 kts 27.7°c 1010.7 hPa n/a n/a
29/07:00am ESE 20-24 kts 27.5°c 1010.3 hPa n/a n/a
29/06:30am ESE 20-23 kts 27.5°c 1009.9 hPa n/a n/a
29/06:00am ESE 21-23 kts 27.2°c 1009.7 hPa n/a n/a
29/05:30am ESE 20-24 kts 27.2°c 1009.5 hPa n/a n/a
29/05:00am ESE 18-21 kts 27.0°c 1009.3 hPa n/a n/a
29/04:30am ESE 17-19 kts 26.9°c 1009.3 hPa n/a n/a
29/04:00am SE 18-21 kts 26.8°c 1009.0 hPa n/a n/a
29/03:30am ESE 18-20 kts 27.2°c 1009.1 hPa n/a n/a
29/03:00am ESE 19-22 kts 27.1°c 1009.2 hPa n/a n/a
29/02:30am ESE 19-21 kts 27.0°c 1009.5 hPa n/a n/a
29/02:00am ESE 18-20 kts 27.2°c 1009.7 hPa n/a n/a
29/01:30am ESE 19-22 kts 27.3°c 1010.3 hPa n/a n/a
29/01:00am ESE 20-23 kts 27.4°c 1010.4 hPa n/a n/a
29/12:30am ESE 21-24 kts 27.4°c 1010.7 hPa n/a n/a
29/12:00am ESE 21-23 kts 27.5°c 1011.1 hPa n/a n/a
Time Wind Speed Temp Pressure Rel. Hum Rain
28/11:30pm ESE 19-22 kts 27.8°c 1011.3 hPa n/a n/a
28/11:00pm ESE 19-21 kts 27.7°c 1011.6 hPa n/a n/a
28/10:30pm ESE 18-21 kts 27.7°c 1011.7 hPa n/a n/a
28/10:00pm ESE 20-23 kts 27.7°c 1011.7 hPa n/a n/a
28/09:54pm E 20-22 kts 27.7°c 1012.0 hPa n/a n/a
28/09:30pm SE 19-21 kts 27.7°c 1011.6 hPa n/a n/a
28/09:00pm ESE 16-20 kts 27.5°c 1011.4 hPa n/a n/a
28/08:30pm ESE 14-16 kts 27.1°c 1011.2 hPa n/a n/a
28/08:00pm ESE 14-16 kts 27.0°c 1011.0 hPa n/a n/a
28/07:30pm E 15-16 kts 27.0°c 1010.8 hPa n/a n/a
28/07:00pm E 16-18 kts 26.3°c 1010.5 hPa n/a n/a
28/06:30pm E 16-17 kts 25.9°c 1010.4 hPa n/a n/a
28/06:00pm E 19-22 kts 25.9°c 1010.2 hPa n/a n/a
28/05:30pm E 18-20 kts 25.9°c 1010.0 hPa n/a n/a
28/05:00pm E 21-25 kts 25.4°c 1009.9 hPa n/a n/a
28/04:30pm ESE 23-26 kts 24.8°c 1009.8 hPa n/a n/a
28/04:00pm ESE 21-24 kts 24.9°c 1010.0 hPa n/a n/a
28/03:30pm ESE 26-30 kts 25.2°c 1009.8 hPa n/a n/a
28/03:00pm ESE 22-26 kts 26.2°c 1009.7 hPa n/a n/a
28/02:30pm ESE 18-21 kts 26.8°c 1009.8 hPa n/a n/a
28/02:00pm E 16-19 kts 26.8°c 1010.1 hPa n/a n/a
28/01:30pm ESE 18-22 kts 27.1°c 1010.3 hPa n/a n/a
28/01:00pm ESE 21-24 kts 27.2°c 1010.6 hPa n/a n/a
28/12:30pm SE 19-21 kts 27.2°c 1011.0 hPa n/a n/a
28/12:00pm E 17-20 kts 26.8°c 1011.3 hPa n/a n/a
28/11:46am SE 21-24 kts 26.6°c 1011.2 hPa n/a n/a
28/11:30am SE 17-20 kts 27.3°c 1011.3 hPa n/a n/a
28/11:00am ESE 14-16 kts 27.9°c 1011.6 hPa n/a n/a
28/10:30am ESE 15-18 kts 27.9°c 1012.0 hPa n/a n/a
28/10:00am E 16-18 kts 28.2°c 1012.1 hPa n/a n/a
28/09:30am E 17-19 kts 27.9°c 1011.9 hPa n/a n/a
28/09:00am E 16-19 kts 27.8°c 1011.8 hPa n/a n/a
28/08:30am E 16-18 kts 27.7°c 1011.7 hPa n/a n/a
28/08:00am ESE 15-17 kts 27.5°c 1011.3 hPa n/a n/a
28/07:30am ESE 15-18 kts 27.5°c 1011.0 hPa n/a n/a
28/07:00am ESE 15-18 kts 27.4°c 1010.7 hPa n/a n/a
28/06:30am ESE 17-19 kts 27.4°c 1010.3 hPa n/a n/a
28/06:00am E 18-20 kts 27.4°c 1010.1 hPa n/a n/a
28/05:30am ESE 18-20 kts 27.4°c 1009.9 hPa n/a n/a
28/05:00am ESE 16-19 kts 27.3°c 1009.8 hPa n/a n/a
28/04:30am ESE 16-18 kts 27.4°c 1009.6 hPa n/a n/a
28/04:00am ESE 18-20 kts 27.4°c 1009.6 hPa n/a n/a
28/03:30am ESE 17-19 kts 27.3°c 1009.6 hPa n/a n/a
28/03:00am ESE 16-19 kts 27.6°c 1009.8 hPa n/a n/a
28/02:30am ESE 18-20 kts 27.5°c 1010.1 hPa n/a n/a
28/02:00am ESE 17-19 kts 27.5°c 1010.4 hPa n/a n/a
28/01:30am ESE 19-22 kts 27.5°c 1010.5 hPa n/a n/a
28/01:00am ESE 17-19 kts 27.5°c 1011.0 hPa n/a n/a
28/12:30am SE 17-21 kts 27.5°c 1011.2 hPa n/a n/a
28/12:00am ESE 17-19 kts 27.5°c 1011.5 hPa n/a n/a